Temp
26 25 25 25 25 26 26 26 26 26 26 26 27 26 26 25 25 29 29 28 29 27 27 29 28 29 29 29 30 30 29 29 29 29 28 28 29 29 29 29 28 25 25 25 24 24 25 24 24 24 23 22 22 21 21 21 21 21 21 20 20 20 20 20 20 20 21 21 21 21 21 20 20 20 19 19 19 19 18 18 18 18 18 18 18 18
25 23 25 26 25 25 25 25 25 25 26 26 26 25 25 25 26 29 29 27 28 26 26 29 29 28 29 29 29 29 28 28 29 28 28 28 29 29 29 29 29 26 25 25 25 25 25 25 23 23 23 22 22 21 21 21 21 21 21 21 20 20 20 20 20 21 21 21 21 21 21 21 21 20 20 20 19 18 18 17 17 17 17 17 17 17
24 24 26 27 25 25 25 25 25 25 25 25 26 25 24 26 27 27 27 27 28 26 26 28 28 27 28 29 29 28 28 28 29 29 28 28 28 29 29 29 29 27 25 25 25 24 25 25 23 23 23 22 22 22 21 21 21 21 21 21 20 20 20 20 20 20 21 20 20 21 21 21 21 20 19 19 19 18 18 17 17 17 17 17 17 17
23 25 27 26 25 25 25 25 25 25 25 25 25 24 23 26 26 24 25 27 28 26 26 27 27 26 28 28 29 28 28 28 29 29 29 29 28 29 29 29 29 28 27 25 24 24 24 25 24 23 22 22 22 22 21 21 21 21 21 21 20 20 20 20 20 20 20 19 19 19 19 19 19 19 18 18 18 18 18 17 17 17 17 17 17 17
24 26 26 25 25 25 24 25 25 24 24 25 26 25 24 26 26 25 25 26 26 26 26 26 24 24 27 27 28 28 28 28 28 28 28 28 28 28 29 29 28 28 28 27 25 24 24 25 24 23 23 22 22 22 22 21 21 21 21 21 20 20 20 20 20 19 19 19 19 19 19 18 19 19 19 19 18 18 18 17 17 17 17 17 17 17
26 25 26 25 25 25 25 25 25 24 24 24 26 26 26 26 26 26 26 25 23 23 25 25 21 22 26 27 28 28 28 28 28 28 28 28 28 28 28 28 28 28 28 28 26 24 24 25 25 24 23 23 22 22 22 21 21 21 21 21 20 20 20 20 19 19 19 19 19 19 19 19 19 19 19 19 19 19 18 18 17 17 17 16 16 17
25 25 26 25 24 25 25 25 26 25 23 23 25 27 26 27 26 25 25 24 21 22 25 25 22 21 24 26 27 28 27 27 27 28 28 28 28 28 28 28 28 28 27 27 27 26 25 25 25 24 23 23 23 22 22 21 21 21 21 21 20 20 20 20 19 19 19 19 19 19 20 20 20 20 20 19 19 19 18 18 17 17 16 16 16 16
26 25 25 25 24 25 24 24 26 26 23 22 25 27 26 26 26 25 25 23 23 24 24 25 24 21 21 24 27 27 26 27 27 27 28 28 28 28 28 28 28 28 27 27 27 26 26 25 25 24 24 23 23 22 22 21 21 21 21 20 20 20 20 20 19 19 19 19 19 19 20 20 20 20 19 19 18 18 18 17 17 17 17 17 16 16
26 25 24 24 24 24 25 26 27 26 24 24 25 26 26 26 26 26 25 23 24 23 22 23 24 22 21 24 27 27 26 26 27 26 27 27 28 28 27 27 27 27 27 27 26 26 26 26 25 25 24 23 23 22 22 21 20 21 21 20 20 20 20 20 19 19 19 19 19 19 20 20 20 20 19 19 19 18 18 17 17 17 17 17 16 16
26 25 25 25 24 25 26 27 27 26 25 25 26 26 26 27 26 26 25 23 23 22 20 22 23 21 21 23 25 25 24 25 26 26 26 27 27 27 26 26 26 27 26 26 27 26 26 26 25 25 24 23 23 22 22 21 20 20 21 20 20 20 20 19 19 19 19 19 19 19 20 20 20 20 20 19 19 18 18 18 17 17 17 17 16 16
26 26 26 25 25 26 27 26 26 26 26 26 26 25 25 26 26 25 24 23 22 21 21 22 23 22 21 22 24 25 24 26 27 26 26 27 27 26 26 26 26 26 26 26 26 26 26 26 25 25 25 24 23 22 22 21 20 20 20 20 20 20 20 19 19 19 19 19 19 20 20 20 20 20 20 19 19 18 18 18 18 17 17 17 17 16
26 25 25 26 26 26 26 26 26 26 26 25 25 25 23 23 23 22 22 22 21 20 21 23 23 22 20 22 25 25 25 26 26 26 26 26 26 26 25 26 26 25 25 26 26 25 25 25 25 25 24 24 23 22 22 21 20 20 20 20 20 20 20 19 19 19 19 19 19 20 20 20 20 19 19 19 19 19 18 18 18 18 17 17 17 16
25 25 26 26 26 26 25 25 25 25 25 25 25 23 21 21 21 21 21 21 20 21 22 23 23 22 21 23 25 25 26 26 26 26 26 25 25 25 25 25 25 25 25 25 25 25 24 24 24 24 24 23 23 22 21 21 20 20 20 20 21 20 20 20 19 19 19 19 19 19 20 20 19 19 19 19 19 19 19 18 18 18 18 17 17 16
23 25 27 26 25 26 25 24 23 24 24 24 23 22 21 20 20 20 20 21 21 21 22 23 22 21 21 24 26 26 26 26 26 26 25 24 24 24 25 25 25 25 25 24 24 24 23 23 23 23 23 23 22 21 21 21 20 20 20 20 21 20 20 20 19 19 19 19 19 19 19 19 19 19 19 19 19 19 19 19 18 18 18 18 17 17
21 22 25 25 25 25 26 25 25 25 25 25 25 24 21 21 20 20 20 20 21 21 21 22 21 21 21 23 25 26 25 26 26 25 25 24 24 24 24 25 24 24 24 23 23 22 22 22 22 22 22 22 22 21 21 21 20 20 20 20 21 21 20 20 19 19 19 19 19 19 19 19 19 19 19 19 19 19 19 19 19 19 19 18 17 17
21 21 25 26 25 26 26 26 27 26 24 25 26 24 22 22 22 21 21 21 21 20 21 21 21 22 23 23 25 26 25 26 25 25 25 24 24 24 24 24 23 23 23 22 22 21 21 21 21 21 22 22 21 21 21 20 20 20 20 20 21 21 20 20 20 19 19 19 19 19 19 19 20 20 19 20 20 19 19 19 19 18 19 18 18 17
21 22 25 26 25 26 26 26 27 25 23 24 24 22 23 26 24 21 20 21 20 20 21 21 21 23 23 23 25 25 25 25 25 25 25 24 24 23 23 23 23 22 22 21 21 20 21 21 21 21 21 21 21 20 20 20 20 20 20 20 20 21 21 20 20 20 19 19 19 19 19 19 19 19 20 20 20 19 19 19 19 18 18 18 18 17
22 21 24 25 25 26 26 26 26 26 25 24 22 23 25 26 24 22 20 20 20 20 21 21 21 21 21 22 24 25 24 24 25 25 24 24 23 23 22 22 22 22 21 21 20 19 20 21 21 21 21 20 20 20 20 20 20 19 19 20 20 21 21 20 20 19 19 19 19 19 19 19 19 19 19 19 20 19 19 18 19 18 18 18 18 17
23 21 23 26 25 25 26 25 24 25 26 25 24 25 25 22 22 22 20 20 20 20 20 21 21 21 21 22 23 24 24 24 24 25 24 23 23 23 22 21 21 21 21 21 20 19 19 20 21 20 20 20 20 20 20 20 20 20 20 20 20 20 20 20 20 19 19 19 19 19 19 19 19 19 19 19 19 19 19 19 19 18 18 18 18 17
23 21 21 25 26 25 25 24 22 23 25 26 25 25 25 22 22 21 21 21 20 20 20 20 21 21 22 23 24 23 24 24 24 24 24 24 23 22 22 21 20 20 20 20 20 19 18 18 19 19 19 19 19 19 20 20 20 20 20 20 20 20 20 20 19 19 19 19 19 19 19 19 19 19 19 19 19 18 18 18 18 19 18 18 18 17
23 21 20 23 25 24 23 23 23 23 24 24 23 23 23 23 23 22 22 22 21 20 20 20 20 21 22 24 25 24 25 25 24 24 24 23 22 21 21 20 20 20 19 20 20 19 19 19 18 17 17 17 17 17 18 19 19 19 20 20 20 20 19 19 19 19 19 19 19 19 19 19 19 19 19 19 19 18 18 18 18 18 18 18 18 17
22 21 20 21 22 22 23 24 25 24 24 24 23 23 23 22 22 21 21 21 21 21 20 20 20 20 22 24 25 25 25 25 24 24 23 22 22 21 20 20 20 19 19 19 20 20 20 20 19 18 18 17 16 16 16 16 17 17 18 19 19 19 18 18 18 18 18 19 18 18 19 19 19 18 18 18 18 18 17 17 17 17 18 18 18 17
21 21 20 20 21 22 24 25 24 24 24 24 24 24 23 23 22 20 20 21 21 21 21 21 20 20 21 24 24 25 25 25 24 24 23 22 21 20 20 19 19 19 19 19 19 19 20 20 20 19 19 18 17 17 16 15 15 15 16 16 17 17 17 17 17 17 17 17 17 18 18 18 18 18 18 18 18 18 17 17 17 16 17 18 18 18
20 20 20 20 21 23 24 25 25 24 24 23 23 24 23 23 23 22 21 21 20 20 21 20 20 20 20 23 24 24 24 24 24 23 22 21 21 20 20 20 19 19 19 19 19 20 20 20 20 20 20 19 18 18 17 16 16 16 15 15 15 15 15 15 16 17 17 16 16 17 18 18 18 18 18 18 18 18 17 17 17 17 17 17 17 18
19 20 20 19 20 21 22 23 23 23 23 22 22 23 23 23 23 22 22 21 20 20 20 20 20 20 20 22 23 23 23 23 23 23 22 21 20 20 20 20 19 19 19 19 19 19 20 20 20 20 20 20 19 18 18 18 17 17 16 16 16 15 14 14 15 16 16 16 16 16 17 17 17 17 16 16 17 17 17 16 16 17 16 16 17 17
19 20 20 19 18 19 20 20 21 21 22 22 22 23 23 23 22 21 21 20 19 20 20 20 20 20 20 21 22 22 22 22 22 22 22 21 21 20 20 20 19 19 19 19 19 19 19 19 20 20 20 20 20 19 19 18 18 17 17 16 16 16 15 15 15 16 16 16 16 16 16 16 16 16 16 16 16 16 16 16 16 17 16 16 17 17
19 19 19 19 19 19 20 21 22 21 21 21 21 21 22 22 22 21 20 19 19 20 20 20 21 20 21 21 21 21 22 22 22 22 21 21 21 20 20 19 19 19 19 19 19 18 18 18 19 19 19 19 19 19 19 19 18 17 17 17 16 16 15 15 15 15 15 15 15 16 16 16 16 16 16 15 15 15 15 15 15 16 16 16 16 16
18 18 19 19 19 20 20 21 21 21 21 20 21 21 21 21 21 20 19 19 20 19 19 20 21 20 20 22 22 21 21 21 21 21 21 21 21 20 20 19 19 19 19 19 19 18 18 17 18 18 18 18 18 18 18 18 18 17 17 17 16 16 15 15 15 15 15 15 14 14 14 15 15 15 15 15 15 16 16 15 15 16 16 16 16 16
18 18 19 19 19 20 20 21 21 21 21 21 21 20 20 21 20 20 19 20 20 18 18 20 20 19 20 21 21 22 21 21 21 21 21 21 21 20 20 19 20 20 19 19 19 18 18 17 17 17 18 18 18 18 18 18 17 17 17 17 16 16 16 15 15 16 16 15 15 14 14 14 14 15 15 15 16 16 16 16 16 16 15 15 15 15
17 17 18 19 19 19 20 20 21 21 20 20 20 20 20 20 20 20 19 20 20 19 19 19 19 19 20 21 21 22 22 21 21 21 21 21 20 20 20 20 20 20 20 19 19 18 18 17 17 17 17 17 17 17 17 17 17 17 17 16 16 16 16 16 16 16 16 16 16 16 15 15 15 15 15 16 16 16 16 17 17 17 16 15 15 15
17 16 18 18 17 18 19 20 20 20 19 19 19 20 20 20 20 19 19 20 19 19 19 19 18 18 19 20 21 21 22 21 21 21 21 21 20 20 20 20 20 20 20 19 18 18 17 17 17 17 17 17 17 17 17 17 17 17 16 16 16 16 16 16 16 16 16 16 16 16 16 17 16 16 16 17 17 17 17 17 17 17 17 16 16 16
17 16 17 17 16 17 18 19 19 19 19 19 19 19 19 19 19 19 19 19 19 18 18 17 17 17 19 20 20 20 21 21 21 21 20 21 21 20 20 19 20 19 19 19 18 18 17 17 17 17 17 16 16 17 16 16 17 17 16 16 16 16 16 15 15 16 16 16 16 16 17 17 17 17 17 17 17 17 17 17 17 17 17 17 16 16
17 16 17 17 15 16 18 18 18 18 17 16 17 18 19 19 19 19 19 19 19 19 18 17 17 18 19 19 19 19 19 20 20 20 20 20 20 20 19 19 19 19 19 19 18 17 17 17 17 16 16 16 16 16 16 16 16 16 15 15 15 15 15 15 16 16 16 16 16 16 17 17 17 17 17 17 17 17 17 17 17 17 17 17 17 16
17 16 16 16 15 15 17 18 17 16 15 15 17 18 18 18 18 18 18 18 19 18 17 17 18 18 18 18 17 18 18 18 19 19 19 19 20 19 19 19 19 19 19 18 18 17 17 17 16 16 15 15 15 15 15 15 15 15 15 15 15 15 15 15 16 16 16 16 16 16 16 16 16 17 17 17 17 17 17 17 17 17 16 16 16 16
16 15 15 15 15 15 16 16 14 13 15 17 18 17 17 17 17 17 17 17 18 17 16 16 17 17 17 17 17 17 17 18 18 18 19 19 19 19 18 18 19 19 18 17 17 17 16 16 15 15 15 15 15 15 15 15 15 15 15 15 15 15 15 15 16 16 16 16 16 16 16 16 16 16 16 16 16 16 16 16 16 16 16 16 16 16
16 15 15 15 15 15 15 14 13 14 16 18 17 17 17 16 16 16 15 16 16 16 15 16 16 17 17 17 16 16 16 17 18 18 18 18 18 18 18 18 18 18 17 17 17 16 16 15 15 15 15 14 15 15 15 15 15 15 15 15 15 15 15 15 15 16 16 15 15 16 16 16 15 15 15 16 16 16 16 16 16 16 16 16 16 16
16 15 15 14 15 15 14 14 14 15 16 16 15 15 15 15 15 14 13 14 15 15 15 15 15 16 16 16 16 16 16 16 16 17 17 17 16 17 17 17 17 17 17 17 16 16 15 15 15 15 14 14 14 15 15 15 15 15 15 15 15 15 15 15 15 16 16 15 15 16 15 15 15 15 15 15 15 16 16 16 16 16 16 16 15 15
17 16 15 14 14 14 14 14 14 13 14 14 14 14 14 14 14 14 13 13 14 15 15 15 15 16 16 15 15 16 15 15 15 15 16 16 16 16 16 16 16 16 16 16 16 16 15 15 15 14 14 14 14 14 14 14 14 14 15 15 15 15 15 15 15 15 15 15 15 15 15 15 15 15 15 15 15 15 15 15 16 16 16 15 15 15
16 16 15 14 13 14 13 12 12 12 13 13 13 13 14 14 14 13 12 13 13 13 14 14 14 15 15 14 15 15 14 14 13 13 14 15 15 15 15 16 17 16 16 16 15 15 15 14 14 14 14 14 14 14 14 14 14 14 14 15 15 15 15 15 15 15 15 15 15 15 15 14 14 14 14 14 14 15 15 15 15 15 15 15 15 15
15 15 14 13 13 13 13 12 12 13 13 12 12 13 13 13 13 12 11 12 12 12 13 13 13 13 13 13 14 13 13 13 13 12 13 14 14 15 15 15 16 16 16 16 15 15 14 14 14 14 14 14 14 14 14 14 14 14 14 14 14 14 14 14 14 14 14 14 15 15 14 14 14 14 14 14 14 14 14 14 15 15 15 15 15 15
13 13 13 12 12 13 12 12 13 13 12 11 12 13 13 13 12 11 10 11 12 12 13 13 13 13 13 13 13 13 13 14 14 14 14 14 14 15 15 15 15 15 15 15 15 14 14 14 14 14 14 14 14 14 14 14 14 14 14 14 14 14 14 14 14 14 14 14 14 14 14 14 14 14 13 13 13 13 13 14 14 14 14 14 14 14
12 11 11 11 11 12 12 12 12 12 11 10 12 13 13 12 11 11 11 12 12 12 13 13 13 13 13 13 13 13 13 14 14 14 14 14 14 14 15 15 15 15 15 15 14 14 14 14 14 14 14 14 14 14 14 14 14 14 14 14 14 14 14 14 14 14 14 14 14 14 14 14 14 13 13 13 13 13 13 13 13 14 14 14 13 13
11 11 11 11 12 12 11 11 11 10 10 11 12 12 12 11 11 11 12 12 12 13 12 12 13 13 13 12 12 12 13 13 13 13 13 14 14 14 14 15 15 15 15 14 14 14 14 14 14 14 14 14 14 14 14 14 14 14 13 13 13 13 13 13 13 13 14 14 14 14 14 14 13 13 13 12 12 12 12 12 13 13 13 13 12 11
12 11 11 11 11 11 10 11 11 10 10 12 12 11 11 11 11 11 11 12 12 12 12 12 12 12 12 12 11 12 12 12 12 12 13 13 13 13 14 14 14 14 14 14 14 14 14 14 14 14 14 14 14 14 14 14 14 13 13 13 13 13 13 13 13 13 13 13 13 13 13 13 13 13 13 12 12 12 12 12 12 12 12 11 10 9
12 12 11 11 11 10 10 11 12 11 12 13 12 11 12 12 12 12 12 11 12 12 12 12 12 12 12 12 12 12 12 12 12 12 12 12 13 13 14 14 14 14 14 14 14 14 14 14 14 14 14 14 14 14 14 13 13 13 13 13 13 13 13 13 13 13 13 13 13 13 13 13 13 13 13 12 12 12 12 11 11 11 10 10 9 8
12 12 11 10 10 11 11 12 12 12 12 12 12 12 12 12 12 12 12 12 12 12 12 12 12 12 12 12 12 12 12 12 12 12 12 12 13 13 13 14 14 13 13 14 14 14 14 14 13 13 13 13 13 13 13 13 13 13 13 13 13 13 13 13 13 13 13 13 13 13 13 13 13 13 13 13 12 11 11 10 9 9 9 9 8 8
11 10 10 10 9 9 10 11 12 12 11 12 12 12 12 12 12 12 12 12 12 11 11 11 11 11 11 11 11 11 11 12 12 12 12 12 12 13 13 14 13 13 13 13 13 13 13 13 13 13 13 13 13 13 13 13 13 13 13 13 12 12 12 12 12 13 13 13 13 13 13 13 12 12 12 12 11 10 9 9 8 8 8 8 8 8
10 9 9 10 9 9 9 10 12 11 11 12 12 12 12 12 12 12 11 11 11 11 10 11 11 11 11 11 11 10 10 11 11 12 12 12 12 13 13 14 14 13 13 13 13 12 12 12 12 12 12 12 12 12 12 12 12 12 12 12 12 12 12 12 12 13 13 13 12 12 12 12 12 11 11 11 9 9 8 8 8 8 7 7 8 8
10 9 9 9 9 9 10 10 11 11 11 12 12 12 12 11 10 10 10 10 10 10 10 10 10 10 10 9 9 9 9 9 10 10 11 11 12 12 13 13 13 12 12 12 12 12 11 11 11 11 11 11 11 11 12 12 12 12 12 12 12 12 12 12 12 12 12 12 12 11 11 11 11 11 10 9 8 7 7 7 7 7 7 7 7 7
10 9 10 9 8 8 9 10 10 9 9 10 10 10 10 10 9 9 9 9 9 9 9 9 9 9 9 9 9 9 8 8 9 9 9 10 11 11 12 12 11 11 11 11 11 11 11 11 11 11 11 11 11 11 11 11 11 11 11 11 11 12 12 12 12 12 11 11 11 11 11 11 10 10 9 7 6 5 6 6 6 6 6 6 7 7
9 9 9 8 8 8 9 10 9 8 8 9 9 9 9 10 9 9 9 9 8 8 8 8 8 8 8 9 9 9 8 8 9 9 9 9 10 10 11 11 11 11 10 10 10 10 10 10 10 10 10 10 10 10 10 10 10 11 11 11 11 11 11 11 11 11 11 11 11 11 11 10 9 8 7 6 5 5 5 5 5 5 6 6 7 7
Height
746 754 753 748 745 741 740 740 743 743 739 737 734 732 729 729 731 721 726 733 729 737 738 728 731 731 726 726 725 726 732 735 733 734 736 736 736 735 735 735 739 747 750 753 758 761 766 767 764 764 766 769 772 774 776 779 781 783 785 787 790 792 793 795 796 797 797 798 799 800 801 801 802 803 804 805 805 805 806 806 806 807 807 807 807 807
751 759 749 739 743 744 743 744 746 747 745 744 742 739 732 730 729 720 725 734 732 741 740 727 730 734 730 729 727 729 735 737 734 735 737 736 736 735 735 735 736 743 749 753 756 758 763 764 762 763 765 767 770 773 775 778 780 783 785 787 789 791 793 795 796 797 798 798 799 800 800 801 802 803 803 805 806 806 807 807 807 807 807 808 808 808
756 754 741 737 743 745 747 747 748 750 749 748 744 742 738 730 728 728 732 734 733 743 741 729 732 737 731 726 727 731 734 734 731 731 734 734 736 735 735 736 735 740 748 752 755 759 762 761 760 761 764 766 769 771 774 777 779 782 784 786 788 790 792 794 796 797 798 799 799 800 801 801 802 803 804 805 806 807 807 807 808 808 808 808 809 809
754 744 736 740 745 747 751 750 751 752 749 748 743 743 741 730 729 737 739 737 736 740 741 735 735 738 734 729 727 729 730 730 729 729 730 731 734 734 733 735 736 737 742 748 755 759 759 758 757 759 762 765 767 770 773 776 778 781 783 785 787 790 791 794 796 797 798 800 800 801 802 802 803 805 806 807 807 808 808 808 809 809 809 809 809 809
745 739 737 742 746 749 752 751 752 753 748 744 741 740 739 730 730 736 740 742 742 742 742 742 747 744 736 733 729 726 728 729 729 731 732 732 732 733 733 734 735 736 737 742 750 755 755 753 754 757 760 763 765 768 771 773 776 779 782 784 786 789 791 793 795 797 798 800 801 802 802 803 804 806 807 807 808 808 809 809 810 810 810 810 810 810
740 740 739 744 748 748 751 750 748 751 748 742 739 738 737 734 734 738 740 746 752 751 742 744 761 754 729 727 728 725 730 732 731 732 733 734 733 734 737 737 737 738 738 738 744 751 752 750 753 755 758 761 763 766 769 772 775 778 780 783 786 788 790 792 794 796 798 799 801 802 802 803 804 805 806 807 808 809 809 810 811 811 811 811 811 811
740 743 740 745 750 748 750 749 742 745 749 746 738 734 737 737 739 742 742 748 756 752 740 742 761 759 734 727 729 728 733 734 732 732 731 731 732 733 735 736 737 738 739 739 741 746 749 749 752 754 756 759 761 764 767 770 773 776 779 782 784 787 788 791 793 795 797 799 800 801 802 802 803 804 806 807 808 809 810 811 811 812 812 812 812 812
739 744 745 747 750 749 750 746 737 739 748 749 740 734 737 737 740 744 744 748 747 742 741 740 747 757 749 735 729 731 735 733 732 735 733 731 731 732 732 733 735 736 739 741 742 744 746 747 750 752 755 757 759 762 765 768 771 774 777 780 783 785 787 789 791 794 796 798 799 801 802 802 803 804 806 808 809 810 811 811 812 812 813 813 813 813
739 746 750 748 751 751 744 737 732 737 746 745 739 736 735 736 738 740 743 746 742 745 754 742 739 758 755 734 726 732 738 735 734 737 736 734 733 734 735 736 737 738 739 740 742 744 744 745 748 751 754 756 758 761 763 766 769 772 776 779 781 784 786 788 790 792 795 797 799 800 801 802 803 805 807 808 809 810 811 812 813 813 813 814 814 814
740 742 742 743 748 745 735 731 731 738 743 738 737 738 735 734 736 738 743 744 746 760 765 747 742 760 758 735 728 737 742 737 734 738 738 736 736 737 739 741 739 739 739 739 740 741 743 744 746 749 752 755 757 759 762 764 767 770 774 776 779 782 785 787 789 791 794 796 798 799 801 801 802 804 806 808 809 811 811 812 813 814 814 814 815 815
736 738 739 740 742 736 731 733 733 736 738 737 739 740 738 737 738 742 743 743 756 767 758 743 739 753 761 741 726 736 742 735 733 738 739 737 737 740 741 741 740 739 739 739 739 739 741 744 745 747 749 752 756 758 761 763 766 769 771 774 777 780 783 785 787 790 793 795 797 799 800 801 802 804 806 807 809 810 811 812 813 814 814 815 815 816
735 740 740 737 736 733 735 737 735 734 736 739 741 740 747 751 749 752 750 751 770 770 748 736 735 748 762 745 727 733 737 733 735 738 741 741 740 742 743 741 740 741 741 740 740 740 741 743 745 747 748 750 754 757 760 762 764 767 769 772 775 778 781 783 786 789 791 794 796 798 800 801 802 804 805 807 808 809 810 812 813 813 814 815 816 816
739 736 733 733 733 733 739 741 737 737 738 740 741 746 762 769 768 771 767 764 772 763 744 736 740 752 754 736 729 735 734 734 737 737 740 743 744 745 744 742 742 742 742 741 741 742 743 744 745 746 748 750 753 757 759 761 763 765 768 770 772 775 778 781 784 787 790 793 795 797 799 800 802 803 804 806 807 808 809 810 812 813 814 815 816 816
744 734 726 732 735 732 737 741 741 742 742 742 743 754 767 774 783 786 775 768 765 756 745 740 749 758 748 733 731 734 734 735 736 738 742 744 746 747 744 742 743 743 743 743 743 745 746 746 746 747 749 750 753 757 759 761 763 764 767 769 771 773 777 780 782 785 788 791 794 796 798 799 801 802 803 804 805 807 808 809 811 812 813 814 815 816
753 748 733 733 737 733 734 734 734 735 739 739 735 743 756 762 775 780 771 768 763 755 750 750 759 760 750 742 735 731 734 734 735 738 742 743 744 745 745 744 745 746 746 747 747 749 749 749 749 749 750 751 754 757 759 761 763 764 766 768 770 773 775 778 781 784 786 789 792 794 796 798 800 801 802 803 804 806 807 808 809 811 812 813 814 815
754 750 732 730 732 732 734 730 726 732 740 737 729 738 750 747 753 763 762 760 762 764 759 755 756 745 738 740 733 731 735 734 736 739 740 744 744 744 747 747 748 749 749 750 751 752 752 752 752 752 752 754 755 758 759 761 763 764 766 768 770 772 775 777 780 783 785 788 790 793 795 797 798 800 801 802 803 804 806 807 808 810 811 812 813 814
756 747 729 732 733 728 731 729 727 736 742 737 736 744 741 730 737 756 761 755 762 775 764 752 750 740 737 741 733 733 737 734 738 740 740 744 745 747 750 750 750 752 752 754 754 754 753 753 754 754 755 756 757 759 760 762 764 765 766 768 770 772 774 777 780 782 784 787 789 791 794 796 797 799 800 801 802 803 804 806 807 808 809 810 812 813
754 752 734 731 735 729 728 732 729 729 734 738 743 740 731 728 734 747 762 765 767 773 760 747 750 747 748 748 736 734 739 738 738 739 741 745 746 749 751 752 753 754 754 756 757 758 757 754 755 756 757 758 758 759 761 762 764 765 767 768 770 772 774 777 780 782 784 786 788 790 792 795 796 798 799 800 801 802 803 804 805 806 808 809 810 811
749 761 743 726 732 731 727 736 738 729 726 733 735 729 735 751 752 749 763 772 773 775 764 751 747 744 743 742 739 740 739 738 739 739 742 745 746 749 752 753 756 756 757 757 758 761 761 759 759 758 758 759 759 759 760 762 763 765 767 768 770 772 774 777 780 783 784 786 788 789 791 793 795 796 798 799 800 802 803 803 804 805 806 807 808 809
747 763 755 730 726 732 731 738 745 737 727 728 731 729 734 745 749 748 752 757 764 771 767 759 753 745 735 730 734 739 735 735 740 740 742 744 746 750 752 754 757 758 759 758 759 762 764 765 764 763 763 762 760 760 760 762 764 766 768 769 771 773 775 778 781 783 785 786 787 789 790 792 794 795 797 798 800 801 802 804 804 805 804 805 806 807
747 759 761 742 730 737 741 738 738 736 732 733 737 739 738 737 739 744 744 743 751 760 763 765 762 748 734 727 728 731 730 732 737 739 742 745 749 752 754 756 758 760 761 761 761 762 763 766 766 767 767 765 764 764 762 763 765 767 769 769 771 774 776 778 780 782 785 785 787 788 789 791 792 794 795 796 798 799 801 803 805 805 804 804 804 805
752 756 761 755 744 743 739 730 729 732 732 735 737 737 739 739 742 753 755 743 741 749 753 759 760 749 737 731 728 727 727 731 734 738 744 748 751 755 757 758 760 761 762 762 763 763 763 765 766 767 768 767 768 768 766 766 767 768 770 771 772 775 776 779 780 782 784 786 788 788 789 790 791 792 793 794 796 798 800 801 803 805 805 803 803 803
755 758 761 759 750 741 732 726 730 734 732 734 736 734 736 739 743 756 761 750 746 748 745 748 756 754 742 732 729 728 728 731 735 738 745 750 753 756 758 759 761 762 763 763 764 764 764 765 766 767 768 768 769 769 770 770 771 771 773 773 775 775 777 779 780 781 783 786 788 789 789 789 790 790 792 793 795 798 798 799 800 803 804 803 804 803
760 764 765 761 748 737 729 724 726 729 734 740 738 734 737 738 739 745 748 748 754 754 751 755 760 756 747 736 732 733 732 735 739 740 746 752 754 757 758 760 762 763 763 764 764 765 765 766 766 767 768 769 769 770 772 773 774 774 774 775 777 777 779 781 779 778 781 787 790 789 789 789 789 790 790 791 794 796 798 798 798 799 800 802 803 803
764 763 764 766 761 752 744 738 733 733 739 743 741 736 735 735 738 744 744 749 758 755 753 761 760 754 751 742 737 739 739 740 742 742 747 752 755 757 758 760 762 763 764 765 765 766 766 766 766 767 768 769 770 771 772 773 774 774 774 776 778 781 783 782 777 775 781 789 791 790 790 789 789 790 789 790 791 793 795 797 797 796 796 798 800 801
765 764 762 769 773 769 761 752 746 744 744 743 742 738 735 736 745 753 755 759 763 754 750 755 753 750 751 746 742 743 742 743 744 744 746 751 753 755 757 760 762 763 765 766 766 767 767 767 768 768 769 769 770 772 772 773 774 774 776 779 781 782 783 782 779 778 785 791 791 789 789 789 789 790 789 789 790 791 792 794 795 795 794 795 796 797
766 765 763 766 766 762 756 748 741 743 748 749 746 743 740 741 745 753 761 763 759 754 751 748 745 747 748 745 745 746 744 745 746 747 748 749 752 754 757 760 761 762 765 766 767 769 769 770 770 770 771 771 772 773 773 774 775 777 779 781 782 783 782 782 783 785 789 791 789 788 787 787 789 789 789 789 790 791 792 792 793 792 793 794 794 795
770 769 764 763 761 756 751 747 743 744 748 748 747 746 746 744 744 752 761 759 756 761 758 744 742 750 749 742 744 746 746 747 747 748 749 749 752 755 756 759 761 762 764 765 767 769 770 772 773 773 773 773 773 775 775 776 778 779 780 781 782 783 783 784 786 787 789 789 788 786 784 785 787 787 787 788 789 791 791 791 789 788 790 792 793 793
771 771 764 761 760 754 750 748 746 746 746 746 747 748 748 748 748 753 756 752 755 764 760 747 747 753 749 744 743 742 744 747 747 747 748 748 752 754 756 758 760 761 763 764 767 768 770 772 773 774 775 774 775 776 777 778 779 779 781 781 782 783 784 785 786 786 787 786 786 785 783 784 785 785 786 787 788 789 789 787 786 785 786 790 791 792
771 771 764 761 761 755 750 747 745 747 748 748 748 747 747 749 749 751 752 749 751 756 753 750 754 753 747 746 744 740 741 744 745 747 748 749 752 753 755 758 758 759 761 764 766 768 770 772 774 775 776 775 776 777 777 778 779 779 781 781 782 783 784 785 785 784 784 784 784 784 784 785 785 785 786 787 787 786 784 783 783 783 785 787 788 789
773 774 766 764 766 762 755 750 748 750 751 751 749 747 746 748 749 750 750 749 751 752 750 753 758 755 747 744 743 741 741 742 744 747 747 748 750 752 754 756 757 758 760 763 767 768 770 772 773 775 776 776 777 778 778 779 779 779 781 781 782 783 783 784 784 783 783 783 783 783 784 784 785 785 785 785 784 784 782 781 781 781 783 784 785 786
773 776 768 767 772 766 758 756 753 749 749 751 749 747 747 748 749 749 748 748 751 753 755 759 762 757 748 743 742 742 741 741 743 745 746 746 747 750 753 755 756 757 759 762 767 768 769 772 773 775 776 777 777 778 779 779 779 779 781 782 782 783 783 783 783 783 782 782 782 782 782 783 783 783 783 783 782 782 781 781 780 780 781 781 782 784
770 774 770 770 774 768 759 757 754 753 760 762 754 749 749 748 747 747 745 745 746 750 755 759 756 750 747 747 749 748 746 745 744 744 747 747 746 750 753 753 755 757 758 761 766 768 769 771 773 775 777 777 777 778 779 779 779 780 781 782 782 782 782 782 782 782 782 781 782 781 781 782 782 782 782 781 781 781 780 780 780 780 780 780 781 782
769 774 774 773 775 771 763 759 761 767 771 765 753 750 753 751 750 750 749 747 747 749 754 754 750 748 750 753 755 754 751 750 749 748 748 748 748 750 752 753 754 756 760 764 767 768 770 772 774 776 777 777 778 779 779 779 779 780 780 780 781 781 781 781 781 781 781 781 781 781 781 781 781 780 780 780 780 779 779 779 779 779 779 779 779 780
772 776 776 774 775 772 765 766 776 776 765 755 751 752 756 756 755 756 755 752 752 755 757 756 754 752 752 755 758 758 755 753 752 751 750 749 750 752 754 755 754 756 762 766 768 769 772 774 775 776 776 777 778 778 778 778 778 779 779 779 780 780 780 780 780 780 780 780 780 780 780 780 780 780 779 779 779 778 778 778 778 778 778 778 778 778
771 775 775 774 772 771 769 772 776 768 753 749 753 754 757 760 760 761 761 757 756 761 762 759 756 754 754 757 759 761 759 756 753 752 752 752 753 754 756 756 756 758 763 766 768 771 774 775 775 775 776 777 777 777 777 777 778 778 778 778 778 778 778 778 778 779 779 779 779 779 779 779 779 779 778 778 778 777 777 777 777 777 777 777 777 777
766 771 774 775 772 770 771 769 765 761 755 755 759 760 763 766 765 768 771 765 760 763 764 762 761 757 757 758 759 760 760 759 757 756 756 758 760 760 760 761 762 764 766 767 770 773 775 776 775 775 776 776 777 777 776 777 777 777 777 777 777 777 777 777 777 777 777 777 777 777 777 777 777 777 777 777 777 776 776 776 776 775 775 776 776 776
762 766 771 775 773 770 772 770 768 769 765 763 767 769 769 771 770 773 777 771 765 765 764 763 762 759 759 762 762 762 763 763 763 762 760 761 764 765 766 767 767 768 769 770 772 774 775 775 775 775 775 776 776 776 776 776 776 776 776 776 775 775 775 775 775 775 775 775 775 775 776 776 776 776 776 775 775 775 774 774 774 774 774 774 774 774
763 765 768 773 773 772 775 776 776 774 769 769 772 771 771 773 772 774 778 773 768 771 770 768 766 764 765 767 766 766 767 767 768 769 767 765 765 767 769 769 768 770 772 772 773 774 774 774 775 775 775 774 774 774 775 775 775 775 775 774 774 774 774 774 774 774 774 774 774 774 774 774 774 774 774 774 773 773 773 773 772 772 772 772 773 773
768 768 771 775 776 774 775 776 772 768 769 774 776 774 774 775 776 782 786 777 772 775 775 773 773 772 772 773 771 771 770 769 771 774 773 771 771 770 770 770 770 771 772 771 772 773 773 773 774 773 772 772 773 773 773 773 773 773 773 773 772 772 772 772 772 772 772 772 772 772 772 772 772 772 772 772 771 771 771 771 770 770 770 771 771 772
775 776 777 778 777 774 776 777 770 766 773 779 778 776 778 778 780 785 785 779 776 777 774 774 776 775 774 775 775 774 772 770 771 772 771 771 771 771 771 771 771 771 771 771 771 772 773 772 771 770 770 771 771 771 771 771 771 771 771 770 770 769 769 770 770 770 770 770 770 770 769 769 770 769 769 769 769 769 769 768 768 768 768 769 770 771
782 784 784 783 781 776 775 777 773 772 781 786 781 777 778 781 782 782 779 780 781 777 774 776 777 775 775 775 775 774 772 770 770 770 769 769 769 770 770 771 771 770 771 771 771 771 770 769 768 768 768 768 769 769 769 769 768 768 768 767 767 767 767 768 768 768 768 768 767 767 767 767 767 767 767 767 767 767 767 766 766 766 766 767 768 770
784 787 784 780 779 779 779 781 781 782 786 786 782 780 781 783 783 781 780 781 779 778 779 779 777 776 777 777 776 775 773 772 771 771 770 770 769 769 769 769 769 769 768 769 769 768 767 766 765 765 765 766 766 766 766 766 765 765 765 764 764 765 765 765 765 765 765 765 765 764 764 764 765 765 765 765 765 765 764 764 764 764 764 766 767 769
783 786 784 779 780 784 784 781 782 785 786 783 783 785 785 785 785 784 784 782 780 780 781 778 776 777 778 778 779 777 775 774 774 772 772 771 769 768 767 767 766 766 766 766 766 765 765 764 762 762 763 763 763 763 763 763 762 761 762 761 762 762 762 762 763 763 762 762 762 762 762 762 762 762 762 762 762 762 762 762 762 762 763 765 767 770
781 782 785 786 787 787 785 779 778 780 780 779 782 784 783 783 784 784 784 782 781 781 779 778 778 777 776 778 778 776 774 773 772 771 771 770 768 766 765 764 764 763 763 763 763 763 763 761 759 759 759 759 759 759 759 759 759 758 758 759 759 759 759 759 760 759 759 759 758 759 759 759 759 759 759 759 760 760 760 761 761 762 763 765 767 770
781 783 787 791 791 787 784 780 778 779 779 780 782 782 781 782 782 781 782 780 779 779 779 779 779 777 776 777 775 773 773 771 769 769 769 767 766 765 764 763 762 762 761 760 760 760 759 758 757 757 756 756 756 756 756 756 756 755 755 756 756 756 756 756 756 756 756 756 755 755 756 756 756 756 756 757 758 758 759 760 761 762 764 765 767 769
787 792 793 794 795 795 791 783 779 781 782 782 782 781 780 780 779 779 780 779 779 781 781 780 780 778 777 776 774 772 771 768 767 766 765 764 763 761 760 760 760 760 759 757 756 756 756 756 755 754 753 754 754 754 753 753 753 752 752 752 753 753 753 753 753 752 752 752 752 752 753 753 753 754 754 755 756 757 758 759 761 762 763 764 766 768
792 798 797 794 794 794 792 786 782 782 782 780 781 780 779 779 779 779 781 781 782 783 783 782 781 779 777 776 774 773 772 769 767 764 762 761 759 757 757 756 755 755 755 755 755 755 754 753 753 752 752 751 751 751 751 749 749 750 750 750 750 750 750 749 749 749 748 749 750 750 751 751 752 752 753 754 756 757 758 759 760 761 762 763 765 766
793 796 795 794 795 793 790 785 783 783 781 779 779 780 780 782 783 784 785 784 784 783 782 781 781 780 779 777 776 775 774 772 769 766 763 760 757 755 754 754 753 754 754 754 754 754 752 752 751 750 750 749 749 749 747 746 746 746 747 747 746 746 745 745 745 745 746 747 748 748 749 749 750 750 751 753 755 757 758 759 760 761 762 763 765 766
795 794 792 794 797 794 788 784 785 788 788 785 783 784 786 787 786 786 785 784 783 782 781 780 779 778 777 776 776 775 773 770 769 767 764 761 758 756 755 754 754 754 753 753 752 751 750 749 748 747 747 746 746 745 745 744 743 743 743 743 743 742 742 742 742 742 743 744 745 745 746 747 748 749 751 752 754 756 758 759 761 761 762 764 766 768
796 796 795 798 799 795 790 789 790 794 793 790 788 788 787 786 785 785 784 783 782 781 780 778 777 776 774 774 773 772 770 768 767 765 762 760 758 756 755 754 752 751 751 750 749 747 747 746 745 745 744 743 743 742 741 740 740 739 740 739 739 739 739 739 739 740 740 741 741 741 743 745 746 748 750 752 755 756 757 759 762 763 765 766 768 770
Wind_Speed
4 5 8 5 1 2 2 4 7 9 10 10 6 6 7 6 8 8 8 6 4 5 9 11 9 10 9 6 5 5 6 9 9 9 9 8 9 9 9 10 10 15 14 13 16 20 22 20 18 17 17 17 15 15 15 16 15 14 13 13 12 12 10 9 8 7 6 5 5 4 4 5 4 4 4 4 4 4 4 3 3 3 3 2 1 2
2 6 9 2 6 6 4 5 6 7 7 7 8 7 7 6 6 4 6 7 4 5 9 11 9 9 10 8 5 5 8 10 10 10 10 11 10 9 9 10 9 12 13 15 17 19 22 20 18 16 16 17 16 15 16 16 16 15 14 13 13 12 11 9 8 6 5 4 4 5 5 5 5 4 4 5 5 4 4 4 4 4 3 3 2 2
7 9 6 3 4 2 2 4 5 7 8 7 8 8 7 7 5 3 6 5 4 4 9 10 8 8 11 10 8 8 8 9 10 10 11 11 11 10 9 9 8 9 13 14 14 16 20 19 19 16 15 16 17 16 16 16 16 15 14 14 13 13 12 10 8 6 5 5 4 4 5 4 5 5 6 7 6 5 5 5 4 4 3 3 2 2
5 4 4 7 3 2 3 5 6 7 8 8 8 8 7 9 8 3 5 5 4 4 9 10 6 5 9 10 8 9 9 8 8 9 10 10 10 10 9 8 8 9 11 15 14 16 20 20 19 18 16 17 17 17 17 17 17 16 15 14 14 13 12 11 9 7 6 7 6 6 7 6 7 7 7 7 6 6 6 5 5 5 4 3 3 2
5 5 7 5 2 5 7 7 8 8 7 8 9 8 8 8 8 4 3 3 3 6 7 9 7 6 10 13 11 10 10 8 7 9 9 9 9 8 8 8 7 8 9 12 14 13 16 18 19 20 19 18 18 17 18 18 18 17 16 16 15 14 13 12 11 9 8 9 8 8 8 7 9 8 7 7 6 5 5 6 6 5 5 4 4 4
3 6 4 3 3 7 8 7 9 8 7 8 9 9 10 9 6 5 4 4 6 7 7 7 8 7 9 13 11 7 9 9 9 10 11 11 10 8 8 8 6 6 7 8 12 13 13 16 19 20 20 20 20 19 18 19 19 18 17 17 16 15 14 14 13 11 10 10 9 9 9 8 9 8 7 6 6 5 5 6 6 5 5 5 4 4
2 5 3 3 5 9 8 9 9 8 8 6 5 8 9 10 7 8 8 6 7 6 5 5 7 7 5 6 6 5 8 10 10 10 11 11 11 10 9 9 8 8 7 7 9 12 12 14 16 19 21 21 21 20 19 19 19 19 19 18 17 16 15 16 16 14 12 11 10 10 9 9 9 8 7 7 6 6 6 6 5 5 5 4 5 5
4 4 3 4 7 8 7 9 7 7 8 4 1 4 8 10 9 8 10 8 8 6 5 8 9 8 6 5 5 6 8 10 10 9 8 8 8 8 7 6 6 5 5 5 7 9 11 13 15 18 20 21 21 21 20 20 20 21 20 19 18 16 16 17 17 16 14 12 12 11 10 9 9 9 9 8 8 7 6 6 5 5 5 4 5 5
3 5 5 8 8 7 9 8 5 7 8 2 1 6 7 9 9 8 9 8 7 7 6 8 9 7 7 6 6 8 9 11 10 9 8 6 5 4 3 2 2 2 3 5 5 7 10 12 15 17 19 19 20 21 21 21 21 22 21 20 19 17 17 18 18 18 15 13 13 12 11 10 9 10 10 9 8 8 7 7 5 5 5 5 4 5
4 4 5 8 8 8 9 4 3 6 7 3 3 7 9 8 9 8 8 8 6 6 8 9 8 7 7 6 6 8 8 10 7 8 6 5 4 2 1 1 2 2 3 4 5 5 6 9 13 16 17 18 20 21 21 20 21 23 23 21 21 19 17 18 19 18 16 14 14 13 12 11 11 11 10 9 9 8 7 7 6 5 5 4 4 5
4 3 3 6 8 9 7 3 2 4 6 6 6 8 9 8 7 7 7 7 7 7 10 11 9 7 7 6 6 5 2 3 5 7 4 4 4 2 1 1 2 2 3 4 4 4 5 7 10 13 15 17 19 20 20 20 21 23 23 23 23 21 18 19 20 19 18 16 14 13 13 12 12 12 11 10 10 9 8 8 7 6 5 5 5 5
6 7 6 6 8 9 8 6 6 6 7 8 8 8 7 6 6 6 6 6 7 8 8 8 8 8 8 6 2 5 5 2 3 5 4 3 1 3 2 2 3 3 4 4 4 4 4 5 7 10 13 16 18 19 20 20 21 23 23 24 24 22 20 20 21 20 19 17 15 14 14 13 13 13 12 11 11 10 9 9 8 7 6 6 6 5
6 9 9 8 7 7 8 8 7 7 8 9 8 7 6 6 5 6 6 5 7 7 3 3 5 6 8 4 4 6 6 4 2 1 2 1 2 3 3 3 4 4 4 4 4 3 3 3 6 9 11 14 16 18 19 18 20 21 22 24 25 24 22 21 21 21 20 18 16 14 14 14 14 14 13 12 12 11 10 10 9 8 8 7 7 6
6 8 9 8 6 7 8 8 5 6 7 8 8 6 6 5 6 7 6 6 7 6 2 1 2 5 7 1 6 7 5 5 4 3 3 3 3 3 3 4 4 4 5 5 5 5 3 2 3 7 10 13 15 16 17 17 18 19 20 23 25 24 22 21 21 22 21 19 17 15 15 15 15 15 14 13 13 12 11 10 10 9 8 8 8 8
6 5 7 5 4 6 8 9 7 5 5 7 7 7 7 6 6 7 5 6 6 3 3 4 2 6 6 2 4 5 6 5 5 6 5 4 3 3 3 4 5 6 6 6 6 6 4 3 1 4 7 10 12 14 15 15 16 17 17 21 23 23 22 21 20 21 21 20 18 17 15 15 15 14 14 13 13 13 12 11 11 10 9 9 9 9
9 5 6 4 3 4 7 7 7 8 5 5 6 7 7 5 6 6 6 6 5 5 4 5 4 5 2 6 6 5 7 7 6 7 6 5 5 4 5 5 6 7 7 6 7 6 5 4 3 3 5 7 9 10 12 13 13 14 14 17 21 21 21 20 19 20 21 20 18 18 16 15 15 14 14 14 13 14 13 12 11 10 9 9 10 10
7 4 7 6 6 6 5 4 4 7 5 3 5 7 6 6 6 6 7 5 3 6 7 6 7 5 3 7 9 8 7 8 8 8 7 6 7 6 5 6 6 7 7 7 7 7 6 5 5 5 6 7 7 8 10 10 11 11 11 14 18 19 18 18 17 18 19 19 18 17 17 16 15 14 14 14 13 14 14 13 12 12 11 11 11 12
4 5 3 7 8 5 2 6 7 8 7 6 4 3 5 7 6 5 6 5 5 8 7 7 9 8 5 4 8 10 9 8 8 8 8 7 6 7 6 6 7 7 8 8 8 8 7 7 7 6 7 8 9 9 9 8 8 8 9 12 15 16 15 15 15 15 16 17 17 17 17 16 16 15 14 13 13 13 14 14 14 13 13 12 12 13
2 6 7 8 7 4 4 7 9 9 10 10 8 5 4 6 5 5 5 6 7 8 6 8 10 8 7 4 7 10 10 10 9 8 9 8 7 7 7 8 8 7 7 7 8 8 6 7 8 8 8 9 10 11 10 8 7 6 7 10 12 12 12 13 13 13 13 15 15 15 17 17 17 16 15 13 12 12 13 14 14 14 14 14 14 15
1 6 6 5 4 3 3 6 8 8 10 11 10 8 7 6 6 5 5 5 7 8 7 8 9 6 4 1 7 10 10 10 9 8 9 8 8 7 7 8 8 7 7 7 8 8 7 8 8 9 9 10 10 11 11 10 8 7 8 9 10 10 10 11 11 11 11 12 13 14 15 16 15 15 15 15 13 13 13 12 13 14 15 16 16 16
2 5 6 5 4 4 5 5 6 7 5 7 8 8 7 7 6 6 7 6 7 8 7 7 8 4 2 3 1 6 9 10 9 8 8 8 8 8 8 8 8 8 7 7 8 8 8 9 9 10 9 10 12 12 12 12 10 9 8 8 8 8 7 9 10 9 9 9 11 12 13 14 14 14 15 15 14 14 14 13 13 15 15 16 17 18
4 5 6 7 6 7 6 2 4 8 6 5 6 6 6 6 6 7 8 7 7 8 7 8 8 3 2 2 3 4 6 9 9 9 9 8 9 9 9 9 8 8 8 8 8 8 8 9 10 11 12 12 12 12 13 14 13 12 9 8 8 8 5 3 3 4 6 8 10 11 12 12 12 13 14 14 14 13 13 13 14 15 16 16 17 18
2 4 6 8 7 11 11 4 2 6 9 10 9 8 8 7 7 8 8 6 6 9 8 8 8 3 2 1 1 1 3 6 7 8 9 8 9 10 9 9 9 9 9 8 8 8 8 10 11 12 13 14 14 13 13 13 13 14 12 10 9 9 8 6 4 4 4 5 7 9 11 12 12 12 13 14 15 14 14 16 16 16 15 16 16 17
2 3 7 8 8 11 14 11 8 6 7 11 11 9 10 10 10 9 9 8 7 9 8 7 8 3 2 2 3 4 4 5 5 8 10 8 8 9 9 10 9 8 9 8 8 7 8 9 10 11 12 13 13 13 13 13 13 14 14 12 10 9 7 6 7 5 4 6 8 7 7 9 10 10 10 11 12 12 13 17 19 18 17 16 17 18
1 5 6 7 8 7 9 11 9 7 6 7 8 11 12 12 11 10 9 8 8 11 11 9 9 2 3 1 3 6 6 7 7 9 10 9 8 8 8 8 8 8 8 8 8 7 7 8 8 9 10 11 12 12 12 12 12 13 14 13 11 9 7 6 9 11 5 4 7 5 5 7 8 8 8 10 13 14 14 16 18 18 18 18 18 19
3 6 5 6 7 7 7 7 5 3 4 5 7 12 12 10 9 9 8 8 9 12 12 11 9 2 5 4 4 5 6 8 9 8 9 9 8 8 8 7 7 7 7 7 8 7 6 7 7 8 9 9 10 10 10 11 11 12 12 11 9 9 8 8 10 11 7 3 4 3 3 3 5 6 7 10 14 16 17 18 19 18 17 17 18 19
5 6 8 10 10 9 11 11 9 8 8 8 9 12 11 9 10 9 8 8 9 10 11 11 11 8 5 6 5 5 6 7 8 9 8 8 9 8 8 7 7 6 7 7 7 6 6 7 7 8 8 8 8 8 8 9 10 10 9 8 8 8 8 8 7 6 4 2 1 2 3 2 2 4 5 6 10 13 16 19 20 17 15 15 16 18
5 7 10 13 14 14 15 16 16 14 14 14 14 14 14 15 15 12 10 11 11 10 11 11 11 12 10 7 6 6 7 7 7 8 8 7 8 8 8 8 8 7 7 6 6 7 7 7 7 7 7 8 8 7 8 8 8 8 7 7 7 7 7 6 4 3 1 1 2 2 2 2 4 5 6 7 8 11 15 17 16 15 15 17 19 20
6 8 10 13 15 16 16 16 16 16 16 16 17 17 17 18 19 16 15 16 14 11 12 13 14 14 11 9 9 6 7 8 8 8 8 7 8 8 9 9 8 8 8 7 7 7 7 7 6 6 7 7 7 7 6 6 6 7 6 6 6 6 5 5 4 2 1 0 1 2 3 4 5 6 7 8 9 11 13 14 13 14 15 20 23 24
4 6 8 11 14 15 17 17 17 16 16 17 18 19 19 19 20 19 19 20 19 17 18 18 18 17 13 11 12 9 6 7 7 7 8 8 9 10 10 9 8 8 8 7 7 7 7 7 6 7 7 6 6 6 5 5 5 5 5 5 4 4 3 3 2 2 1 2 2 1 2 3 4 6 7 9 10 11 11 11 11 12 14 18 21 21
2 5 7 9 10 13 15 17 17 17 18 19 19 20 19 20 20 19 18 18 18 18 19 18 17 14 11 11 12 13 11 11 10 11 11 11 11 12 11 10 9 9 9 7 7 7 7 7 6 6 6 5 5 4 4 3 2 4 5 4 3 3 2 3 3 3 3 3 3 3 4 5 5 6 8 9 9 9 10 10 10 11 12 14 15 16
3 6 8 9 10 11 13 16 18 18 18 19 20 20 20 19 18 17 16 15 15 16 15 15 13 11 9 10 12 12 14 15 14 13 13 12 12 13 12 11 10 9 10 9 7 7 7 6 6 5 5 4 4 3 3 2 1 2 3 2 2 2 2 2 3 3 3 4 5 5 6 6 7 8 8 9 9 9 9 10 10 11 11 12 13 14
6 7 8 8 9 11 13 15 16 14 14 13 12 13 17 18 18 18 18 17 17 15 13 12 12 10 9 9 10 11 12 13 13 11 11 11 11 11 12 11 10 10 10 9 8 7 6 5 5 5 4 2 2 2 2 1 1 2 1 1 1 1 2 3 3 4 4 5 6 6 7 7 8 9 9 9 9 9 9 9 10 11 11 11 12 12
9 9 8 8 8 11 14 14 12 12 12 8 3 4 9 13 14 15 15 15 14 12 10 11 11 11 10 8 9 11 11 10 9 6 6 7 7 9 10 11 11 10 9 8 7 6 5 4 4 4 2 1 1 2 2 1 0 0 1 1 1 2 3 4 4 4 5 6 7 7 8 8 9 9 9 10 10 10 11 11 11 11 10 11 12 11
9 9 8 8 8 10 11 11 11 12 10 6 3 2 4 7 9 10 11 12 10 9 10 12 11 11 10 9 9 10 10 9 8 7 7 7 7 8 10 11 11 10 10 8 7 4 3 2 2 1 1 0 1 2 3 2 1 2 3 2 3 4 4 5 6 6 6 7 8 8 8 8 9 9 9 10 10 11 12 12 12 12 11 11 12 12
10 9 8 8 9 9 9 9 11 11 8 6 7 5 3 5 7 8 10 10 6 6 8 10 9 8 8 8 7 7 9 9 8 7 6 4 4 5 7 8 7 7 9 8 6 4 3 2 2 1 0 1 3 4 4 3 3 4 5 4 5 5 6 6 7 7 8 8 9 9 8 8 9 9 10 11 11 12 12 12 13 13 12 12 12 12
10 9 8 8 9 8 9 10 10 11 11 9 5 2 2 4 5 5 8 8 4 3 6 7 7 7 6 7 8 7 7 8 7 4 1 4 3 4 4 3 1 1 4 6 6 6 6 5 3 2 2 3 5 5 6 6 6 6 6 7 7 7 7 8 8 8 9 9 10 9 8 9 9 10 10 11 12 13 13 13 13 13 12 13 12 13
10 10 9 9 8 7 9 10 9 10 10 4 2 5 5 4 4 4 7 6 2 2 5 7 8 8 7 8 8 8 8 8 6 3 2 4 2 2 4 3 1 0 2 5 6 7 6 4 3 4 4 5 7 8 8 7 7 8 8 9 9 8 9 9 9 10 10 11 11 10 9 10 10 10 11 12 13 14 13 14 14 13 12 13 13 14
11 10 8 9 8 8 9 8 8 9 5 2 5 4 5 5 5 5 7 5 3 6 8 8 8 8 8 8 8 8 8 7 4 2 3 4 2 1 3 4 5 4 5 6 7 7 6 4 5 7 8 9 9 9 9 9 9 10 11 10 10 10 10 10 11 11 12 12 12 12 11 11 11 11 12 12 13 14 14 14 14 14 13 13 13 13
10 8 8 9 9 9 9 8 8 7 2 4 3 2 4 4 4 5 7 3 4 4 6 8 8 8 8 9 8 8 8 7 3 1 2 3 5 7 7 7 8 9 10 11 10 8 7 8 9 10 10 10 10 10 10 11 11 12 12 12 11 12 12 12 13 13 14 14 14 13 13 13 12 12 12 13 13 13 14 14 14 14 14 12 13 13
6 6 6 8 9 9 10 9 8 5 2 5 3 2 3 3 3 6 6 3 4 5 6 6 8 8 8 9 8 7 8 8 6 5 5 6 8 10 10 11 12 13 13 13 12 10 10 12 12 12 12 12 12 12 12 12 13 13 13 13 13 12 13 13 14 15 15 16 16 16 15 15 14 14 13 13 13 13 13 14 14 14 14 13 14 13
5 4 5 7 8 8 8 8 9 5 2 5 4 4 3 5 5 4 5 5 6 8 9 9 10 10 10 11 10 9 10 11 11 11 11 12 12 11 12 14 15 15 15 15 14 13 13 14 14 14 14 14 14 14 13 14 14 14 14 13 13 13 14 14 15 16 16 17 17 17 17 16 15 15 14 13 13 13 14 14 14 14 13 12 12 9
4 5 6 7 7 7 8 9 9 5 1 5 6 4 2 3 5 6 7 8 9 10 10 11 11 11 11 12 12 13 14 14 14 14 14 14 15 15 15 16 17 17 18 17 17 16 16 16 16 16 16 15 15 15 15 15 16 15 15 15 15 15 15 16 16 17 17 18 18 18 17 17 16 16 15 14 13 13 14 13 14 14 13 10 9 9
4 6 6 5 3 4 7 7 3 1 2 5 6 5 4 5 7 8 9 9 10 11 11 11 11 12 12 12 13 15 15 14 14 15 14 15 16 16 17 18 19 20 21 21 20 20 19 19 19 18 18 17 17 16 16 16 17 17 17 17 16 16 17 17 17 17 18 18 18 18 18 17 17 17 15 14 13 13 14 14 15 15 11 8 9 12
3 3 5 4 4 5 7 7 6 6 7 8 7 7 9 10 9 10 12 11 11 11 10 10 12 13 14 14 15 15 15 15 16 15 15 16 16 17 19 20 22 24 23 23 24 23 22 22 21 20 19 19 18 18 17 17 18 19 19 19 18 18 18 18 18 18 18 18 18 18 18 17 17 17 16 15 14 14 14 14 12 10 9 9 11 14
2 4 5 5 6 8 10 11 11 11 11 10 9 10 11 12 11 12 13 12 11 11 11 11 13 15 15 16 16 16 16 17 18 17 18 18 18 19 20 22 24 26 27 26 26 25 24 22 21 21 21 21 20 20 20 19 20 20 21 20 19 19 19 19 19 19 19 19 19 19 18 18 18 18 18 17 15 14 12 10 9 10 9 10 12 14
4 5 5 6 7 9 9 9 10 11 11 11 12 12 13 13 13 12 11 11 11 12 13 14 15 17 17 18 18 18 19 20 20 19 18 17 18 19 20 21 24 26 27 27 26 25 25 23 21 21 21 22 21 21 20 20 20 21 21 20 20 20 20 20 21 20 20 19 19 18 18 18 18 19 18 15 12 10 9 8 10 10 10 12 14 16
3 5 4 8 9 9 10 11 13 14 14 13 12 11 11 12 12 12 12 12 13 14 15 17 17 17 17 17 18 19 20 21 21 21 18 17 18 18 18 21 24 25 25 26 26 25 25 23 23 22 22 22 22 22 22 22 22 21 21 22 21 21 21 22 22 22 21 20 19 18 18 18 17 17 16 12 7 6 7 8 9 10 11 14 17 18
4 4 6 8 8 9 11 12 12 12 12 12 11 11 11 12 13 14 15 15 16 16 17 17 17 16 15 16 17 17 19 19 19 21 21 19 18 18 20 23 25 25 25 26 25 25 24 24 24 24 24 23 23 23 23 23 23 22 22 23 23 23 23 23 23 23 22 20 20 19 18 17 15 12 10 7 6 6 7 9 11 11 12 13 16 20
6 6 7 7 8 8 9 10 10 10 10 11 12 14 14 14 15 16 16 16 16 16 16 16 16 16 16 17 16 16 16 17 17 19 19 18 18 21 23 24 25 24 25 25 24 24 24 24 24 24 24 24 23 22 23 23 23 22 22 23 23 22 23 23 22 22 21 20 21 20 17 15 13 8 6 8 10 12 12 11 12 16 19 20 21 22
4 6 7 8 9 10 11 13 12 11 10 11 14 15 15 14 15 15 16 16 16 15 16 16 17 17 16 18 19 19 17 17 19 20 18 16 19 22 23 23 23 23 23 23 22 23 23 24 24 24 24 23 23 23 23 23 23 23 22 22 22 22 22 22 21 20 20 20 20 18 15 12 10 9 12 13 16 20 22 21 20 22 24 24 22 22
Wind_Direction
239 236 229 231 262 32 33 342 346 340 328 321 301 260 247 223 215 208 127 119 244 252 246 232 220 249 251 234 231 190 198 235 224 202 206 213 218 214 217 222 183 159 160 169 182 191 195 190 172 160 159 161 160 160 161 159 161 161 159 160 158 159 161 161 169 170 169 163 146 146 143 132 125 119 119 101 82 82 75 56 56 58 38 39 18 327
242 248 240 238 41 30 10 345 332 315 301 284 275 267 252 239 231 215 127 134 196 246 254 242 229 251 254 236 229 206 209 229 225 209 208 209 216 217 214 225 201 157 156 175 185 192 194 184 168 163 161 164 166 166 168 167 166 166 165 163 161 161 163 167 172 169 164 153 145 146 141 136 128 115 116 112 95 86 82 62 50 49 38 39 28 357
218 240 228 107 52 16 325 295 280 278 275 260 253 257 251 236 226 129 118 164 192 228 256 248 228 237 251 242 213 203 220 230 223 214 211 209 213 217 211 220 217 180 169 175 178 190 198 185 168 167 169 171 173 173 174 173 170 170 170 166 164 162 163 166 166 164 159 144 132 129 125 121 114 97 82 91 98 91 85 74 62 57 52 52 56 50
228 229 148 107 82 243 227 238 244 249 250 249 244 247 249 237 236 186 149 200 219 247 276 280 267 248 256 251 217 205 222 224 215 212 210 210 213 216 213 210 217 212 185 168 171 193 199 187 173 172 176 177 178 179 177 176 175 175 175 170 166 165 162 162 162 159 148 138 126 119 115 99 101 107 99 98 100 93 88 80 72 72 68 60 62 58
260 83 101 113 142 227 235 217 227 248 238 231 241 252 259 250 259 269 173 173 229 237 256 275 269 246 241 238 223 208 212 213 203 208 208 205 210 215 221 220 214 227 210 175 173 196 200 188 181 179 180 181 182 183 180 178 178 177 177 173 167 165 162 159 160 156 147 144 139 132 129 114 110 119 125 122 110 101 97 88 82 80 76 69 64 53
253 90 124 178 192 227 242 229 220 242 252 232 224 240 269 277 274 261 217 188 242 235 207 233 256 252 237 230 225 200 194 208 206 207 205 196 201 204 211 225 221 225 232 203 184 194 202 194 190 186 183 184 186 185 182 179 179 177 176 174 169 166 162 159 160 158 156 157 156 153 150 144 139 140 138 131 120 112 100 95 93 84 79 73 68 61
128 117 185 194 229 234 237 247 226 219 255 260 206 209 248 268 254 245 246 229 253 261 167 198 259 270 247 222 216 198 198 209 205 206 208 198 199 204 204 210 214 211 217 224 205 198 203 199 198 195 189 188 188 185 181 178 178 177 175 174 171 168 164 162 163 163 164 165 168 169 163 155 152 145 133 127 122 115 105 104 104 93 90 85 76 71
138 151 195 200 233 239 234 247 220 203 248 278 49 218 229 247 239 233 248 242 257 273 183 195 240 263 263 232 191 191 211 213 196 195 210 206 201 208 213 208 209 211 207 219 214 209 215 207 203 203 197 193 189 183 181 179 178 177 175 174 171 169 166 165 165 166 169 171 172 176 171 161 155 143 134 132 129 123 120 119 116 107 103 93 84 80
190 187 204 215 226 237 242 246 190 197 245 262 326 264 247 248 239 229 245 247 256 269 243 225 234 249 259 240 183 178 217 227 198 187 200 205 205 205 220 230 220 238 243 242 223 213 219 213 207 206 202 198 192 185 182 179 176 175 174 173 172 172 169 168 168 169 174 175 175 179 176 166 155 144 143 144 138 133 131 130 127 120 112 98 88 86
198 204 219 224 228 236 245 265 156 197 241 278 290 263 253 250 241 234 245 251 251 252 255 248 233 241 259 247 201 184 226 242 200 179 192 188 189 182 173 282 271 252 251 261 252 233 225 219 216 210 202 198 194 188 183 178 175 174 174 174 174 173 170 169 170 172 176 177 178 182 180 171 159 151 154 151 143 144 143 139 137 131 124 112 101 97
159 169 249 239 244 259 273 310 262 234 261 279 269 248 241 242 242 243 247 256 257 240 244 244 228 233 253 252 226 179 204 261 162 160 182 182 169 126 77 294 299 318 314 297 284 272 249 227 221 215 204 195 192 189 183 177 175 176 176 175 175 175 172 171 172 174 178 180 182 184 181 174 163 157 159 155 152 156 153 150 151 148 141 130 121 115
180 185 213 215 232 264 276 260 236 236 252 254 251 244 236 234 235 240 239 240 250 253 254 246 225 226 248 262 230 133 130 130 150 164 179 195 167 75 38 348 8 1 337 325 318 314 288 241 215 212 204 193 189 189 185 180 177 178 179 177 175 175 174 173 174 176 178 181 185 185 182 178 169 164 165 162 163 166 163 162 161 158 154 146 142 139
217 216 203 183 200 239 253 244 214 207 231 240 238 241 242 238 234 236 235 227 239 253 270 252 222 226 252 260 129 136 139 136 159 178 139 138 38 35 15 13 27 11 1 358 348 349 324 264 213 204 198 188 184 186 188 184 179 180 182 180 177 176 176 175 176 178 180 181 185 186 184 181 176 173 173 171 170 173 173 170 167 168 166 160 158 158
227 220 196 182 185 210 236 243 218 196 218 236 235 235 241 239 240 244 242 238 240 231 213 272 261 245 257 234 132 145 132 123 150 139 95 91 73 42 13 28 42 29 27 26 16 16 5 324 216 198 193 184 180 184 189 188 185 184 184 184 181 177 176 175 177 180 181 181 183 186 187 185 183 181 181 181 178 178 179 175 172 175 172 169 172 171
259 230 192 194 153 176 227 249 258 256 235 240 244 238 242 248 252 257 262 265 270 256 200 181 199 254 253 156 130 143 138 144 155 139 120 112 103 82 57 49 48 47 43 42 41 36 29 24 68 183 189 186 183 188 192 191 189 186 186 187 185 180 177 177 179 181 182 182 183 186 188 189 190 189 188 188 183 182 184 180 177 179 179 177 177 177
271 256 164 170 153 191 236 250 267 276 254 238 246 239 240 246 250 263 275 277 299 307 251 199 213 260 198 143 156 150 147 154 152 146 140 125 112 94 80 65 54 54 51 49 53 51 57 67 85 138 167 180 184 189 192 190 189 189 187 189 187 182 179 179 181 183 184 184 184 186 190 193 195 195 195 195 190 186 186 184 181 183 185 182 179 178
266 260 133 162 211 221 254 274 257 262 264 246 239 244 258 261 258 269 268 251 238 264 259 235 240 245 172 165 171 169 169 163 162 166 150 126 117 105 85 71 60 58 58 59 58 49 56 81 99 118 140 158 166 173 181 183 183 185 186 188 189 186 183 183 184 185 185 185 186 189 191 195 200 201 202 202 198 190 187 187 186 186 187 185 182 179
272 273 205 218 227 189 214 279 258 247 263 272 257 270 285 269 262 270 270 256 242 255 254 243 248 246 238 211 170 179 191 178 179 174 151 142 131 112 95 83 71 64 66 71 71 57 49 66 86 105 125 138 144 147 155 163 167 176 189 189 188 187 185 186 188 187 186 187 189 191 193 197 202 206 209 209 206 197 191 190 189 190 190 189 186 182
274 274 259 245 237 175 174 249 256 240 237 251 273 299 291 261 253 247 256 263 260 266 267 258 260 255 251 220 163 190 204 183 182 175 162 162 142 118 104 93 81 72 71 74 79 73 58 62 76 90 102 114 122 124 125 132 142 156 179 181 177 181 183 188 194 192 188 189 192 193 196 200 204 208 212 215 214 208 203 201 197 194 192 190 189 186
238 267 269 247 227 210 214 233 246 239 221 229 255 268 257 258 271 264 255 260 262 265 269 271 270 259 265 222 164 195 205 185 181 178 171 159 133 118 107 100 90 80 75 73 81 87 85 83 82 82 86 92 92 94 108 118 126 139 155 164 166 173 180 188 198 196 191 195 200 200 201 205 210 213 217 219 220 219 217 216 212 207 198 192 193 190
248 258 270 262 234 230 245 241 257 271 242 226 241 247 243 247 263 271 266 262 267 269 270 275 271 258 347 6 200 208 197 179 179 178 164 142 128 117 103 101 96 88 81 76 80 87 94 100 99 95 93 86 68 59 79 101 108 121 139 151 155 160 175 191 201 205 205 205 207 212 212 212 213 217 222 223 222 222 223 225 229 225 212 199 197 194
258 257 262 265 256 246 251 269 310 310 303 277 268 265 263 260 258 264 263 257 262 269 272 276 277 283 46 9 296 259 196 170 175 170 152 138 130 118 105 103 100 97 93 85 84 83 86 91 94 96 97 95 83 66 66 75 79 86 96 112 125 122 113 132 176 208 225 225 223 225 224 222 220 221 227 227 225 224 222 226 236 239 229 215 207 201
359 286 269 265 263 267 275 277 269 291 293 284 277 277 279 277 271 268 269 274 278 277 278 280 280 292 63 60 308 275 174 164 172 160 145 138 128 120 116 112 105 103 102 96 93 90 88 89 90 93 94 94 96 90 83 80 79 81 77 76 89 93 90 94 82 34 346 279 251 237 228 228 230 231 235 237 236 234 227 226 233 240 239 230 222 215
91 260 259 265 263 264 269 258 230 233 267 270 264 264 265 265 268 273 281 293 289 277 276 276 271 255 91 65 80 93 121 151 166 157 148 142 132 128 125 119 116 113 109 106 103 99 99 98 95 95 94 92 91 91 91 93 94 94 88 81 77 73 82 117 132 102 25 313 285 266 245 237 236 241 246 247 248 251 245 238 237 239 240 239 236 231
196 251 247 264 267 255 252 248 233 223 240 260 263 257 254 263 278 282 284 288 273 267 268 268 270 257 115 151 131 126 147 159 164 164 155 148 145 141 133 128 127 122 118 115 109 105 103 100 95 91 91 93 94 92 91 91 88 87 86 86 87 86 85 96 108 106 97 272 261 260 262 255 251 256 257 253 253 259 259 254 248 240 233 233 235 236
267 270 264 265 266 261 257 257 260 260 259 268 275 265 254 258 277 281 278 270 261 266 267 263 269 252 138 183 189 165 178 173 166 167 160 157 159 153 142 140 138 133 132 125 116 112 104 98 95 92 89 89 92 94 94 91 87 84 83 84 87 90 86 75 79 92 104 178 209 197 218 250 265 268 263 257 257 257 255 251 248 240 230 229 232 235
270 266 265 263 264 270 278 286 300 307 291 278 280 279 269 257 260 266 268 265 268 277 271 261 270 270 229 216 210 199 207 197 178 177 178 174 167 158 151 151 150 145 142 136 129 124 113 102 96 92 91 88 88 91 91 92 91 91 94 94 88 80 75 70 71 90 115 161 146 107 94 70 327 292 287 278 271 267 257 248 245 243 241 244 244 239
268 259 256 260 262 268 276 283 289 288 283 280 279 276 272 266 263 261 260 266 276 281 270 267 276 276 268 261 243 215 218 228 214 201 203 193 173 168 164 159 162 162 156 152 148 138 126 116 106 98 96 93 91 90 88 88 90 91 93 93 89 86 85 85 87 92 91 307 329 342 332 316 300 303 312 305 289 276 265 256 253 255 256 258 257 249
268 263 259 262 263 264 267 270 275 275 275 276 275 270 268 267 267 266 264 266 269 267 269 282 289 283 279 281 276 251 223 233 237 222 216 207 191 189 183 178 183 184 176 167 155 146 135 125 117 108 101 96 96 97 95 94 93 93 92 86 83 85 89 95 104 106 91 5 7 344 309 285 281 288 290 284 273 265 265 265 265 260 250 246 248 249
270 269 268 272 272 272 271 270 272 274 273 272 269 267 265 263 264 264 264 265 266 265 269 278 283 282 281 280 278 273 248 239 245 237 228 222 215 209 201 201 207 204 197 181 158 146 134 126 122 116 107 97 92 92 92 93 94 99 94 82 77 71 60 54 51 51 30 355 3 354 305 269 261 263 262 263 262 262 267 272 270 260 245 237 240 245
226 271 276 280 278 275 276 278 276 273 272 271 267 264 263 262 261 260 262 263 264 266 271 276 277 279 282 279 272 269 262 255 252 247 241 233 227 221 214 218 222 217 211 191 162 150 141 130 123 113 107 102 95 91 89 83 88 103 97 80 72 64 33 5 355 354 349 337 332 317 295 280 267 262 262 265 269 271 272 272 270 266 257 247 243 244
221 265 277 276 271 269 271 273 272 273 273 271 267 264 262 262 262 262 263 264 265 268 275 278 275 273 279 280 275 272 269 263 256 253 253 245 235 230 227 227 225 218 211 199 175 160 149 137 123 112 104 101 103 102 94 82 69 92 86 59 40 32 3 352 336 326 322 315 312 306 298 291 284 279 276 275 276 277 277 274 272 269 265 256 247 245
246 263 274 272 269 271 271 273 278 280 277 273 273 273 268 266 265 264 262 263 266 269 271 270 268 275 289 294 287 282 281 277 269 265 266 259 245 238 235 230 225 219 213 205 187 165 152 138 121 112 104 97 101 82 57 29 24 69 63 359 359 346 330 328 314 308 309 306 304 304 299 295 290 286 285 284 284 284 283 278 273 269 267 263 254 247
260 266 272 271 270 272 275 282 284 272 260 262 292 309 287 280 275 271 271 273 274 276 285 287 286 286 289 294 293 287 287 293 292 290 290 276 256 243 238 236 236 227 212 200 186 168 151 136 118 107 103 101 71 30 344 304 294 96 253 266 291 304 309 309 303 300 298 296 296 296 294 293 291 290 291 291 290 290 285 281 277 271 265 263 257 246
259 263 265 265 266 272 277 278 266 258 259 265 277 299 305 298 292 287 284 283 283 290 296 294 294 292 287 293 305 301 297 296 288 282 284 277 263 252 247 247 240 217 201 200 195 177 150 140 141 126 117 291 322 304 275 260 259 271 268 268 281 288 291 292 292 292 290 291 293 291 290 289 289 291 293 293 292 290 285 281 278 272 264 260 257 250
255 258 260 262 262 265 268 256 251 263 275 257 245 246 249 263 273 277 274 272 280 302 302 297 299 300 293 293 301 303 306 300 281 275 293 299 287 273 260 255 240 207 203 213 214 218 241 248 240 230 238 286 288 280 277 285 292 286 281 279 276 277 281 285 287 285 283 284 285 285 286 286 287 290 291 290 289 286 283 280 275 269 264 260 256 253
247 251 253 257 258 257 260 257 258 272 272 252 246 310 339 288 292 298 285 280 279 290 300 305 306 303 299 298 297 299 308 303 280 261 52 58 23 350 351 358 20 178 221 230 235 244 250 253 258 254 254 272 275 279 284 286 282 279 278 276 274 274 276 278 280 281 282 284 285 285 284 282 285 287 288 290 289 284 282 280 275 269 263 257 253 250
245 248 250 252 254 253 260 263 260 263 266 256 93 60 45 10 353 334 291 285 311 339 314 304 296 299 306 304 303 305 303 293 278 254 126 120 129 24 8 9 30 226 257 247 248 253 253 255 273 281 282 279 274 275 276 275 273 273 271 269 269 271 274 276 280 282 283 284 286 285 282 280 283 285 286 287 286 284 282 278 275 270 261 255 253 250
247 244 246 250 252 250 252 258 257 258 270 67 83 68 49 32 11 332 282 275 45 33 358 339 325 324 322 308 303 302 291 284 289 345 21 18 357 302 301 284 262 264 274 265 261 267 273 283 290 287 282 276 272 273 273 272 271 269 267 267 266 267 271 274 277 279 281 284 286 284 280 279 280 280 282 282 282 281 280 275 273 269 260 256 255 251
247 240 239 243 247 248 249 254 258 259 275 73 75 36 22 16 355 301 274 284 56 31 359 352 340 334 330 317 307 292 281 284 298 335 4 338 308 292 288 283 275 273 272 268 269 279 288 287 283 281 278 273 273 274 273 271 270 266 265 264 262 262 265 269 273 276 278 280 281 279 276 274 275 276 277 278 278 277 275 272 269 265 258 254 255 255
246 240 243 247 248 247 249 254 259 260 45 54 34 5 350 317 279 265 273 340 14 318 316 328 313 306 310 308 303 290 284 294 301 288 274 270 272 279 285 284 282 280 278 278 280 287 288 284 281 279 278 275 275 274 270 267 264 262 261 260 258 260 263 266 269 272 275 277 277 275 274 272 272 274 275 276 277 275 273 269 265 261 255 249 249 249
253 242 243 248 250 251 253 260 262 260 50 35 346 317 297 268 259 287 318 332 316 304 311 312 301 298 297 294 294 291 288 290 290 289 289 286 281 279 280 280 280 281 283 285 286 284 281 278 277 276 273 271 270 269 267 264 262 261 262 260 261 264 267 268 269 270 271 273 272 271 271 269 268 270 272 273 274 273 271 268 263 259 254 249 241 224
263 259 247 240 247 255 254 256 259 256 33 7 332 319 300 284 308 335 330 313 305 308 307 300 296 298 296 296 298 296 293 294 293 291 290 290 287 284 282 280 280 281 284 287 288 287 284 282 280 278 276 274 271 269 268 265 264 263 263 262 265 269 270 269 270 270 271 272 271 270 268 265 263 263 264 266 269 270 268 265 261 257 249 238 222 194
260 261 263 264 273 265 250 251 267 320 327 320 316 307 300 304 314 317 308 301 303 303 298 294 293 294 294 295 297 296 295 294 293 292 291 287 284 283 282 280 279 279 280 283 286 288 287 285 281 278 276 273 271 269 269 268 268 267 265 266 268 270 270 268 268 269 269 270 269 267 264 261 261 260 259 262 265 266 264 263 262 256 239 206 187 185
261 273 285 297 302 284 269 278 304 307 294 297 302 295 294 296 297 296 295 292 292 293 293 294 293 292 293 292 290 290 289 287 286 285 285 283 282 282 282 282 282 282 281 281 282 284 283 282 281 280 279 276 275 274 272 271 271 270 268 269 269 268 267 265 264 264 266 267 266 264 262 261 259 258 258 260 262 264 266 264 253 235 207 180 178 185
321 321 300 293 294 290 279 277 286 292 295 298 297 293 295 295 292 292 290 286 289 293 295 295 293 294 294 292 289 286 284 284 285 284 282 282 280 280 280 281 283 284 283 281 281 281 281 282 282 281 279 279 278 277 276 274 271 269 268 267 266 265 264 263 262 260 260 261 262 262 261 261 261 261 262 262 263 265 265 248 215 199 196 191 189 188
37 16 309 279 282 286 282 282 289 293 294 294 293 293 292 288 288 291 290 291 298 300 296 295 294 293 291 288 287 286 285 284 282 280 280 280 279 278 278 277 276 277 279 280 281 282 283 283 283 281 280 280 279 276 275 274 272 271 271 269 266 264 263 262 260 258 256 257 259 261 263 264 265 265 264 263 262 259 247 219 204 205 202 190 185 184
48 36 314 282 278 280 284 290 292 290 287 287 286 287 290 294 302 309 307 302 302 299 294 292 290 289 289 288 287 289 289 288 285 283 281 280 278 278 277 277 277 277 279 281 283 283 283 282 283 283 282 281 279 276 274 272 270 270 270 268 266 263 259 257 256 257 257 258 260 263 264 263 262 260 256 253 245 231 215 204 204 201 192 188 185 176
296 304 299 294 290 285 285 288 291 291 290 290 291 298 309 314 315 313 306 298 296 294 292 290 289 288 289 290 289 288 287 287 287 286 284 282 280 280 280 282 283 283 284 284 284 283 282 281 282 282 281 280 279 278 277 274 272 268 265 265 264 262 259 258 257 258 259 258 257 258 257 257 257 252 241 222 195 185 188 193 191 173 157 161 164 154
280 283 294 296 288 283 287 300 311 309 299 296 302 310 315 313 308 305 302 300 299 299 299 299 297 295 292 291 291 288 286 288 288 286 283 282 281 282 283 283 283 283 283 283 282 282 282 282 283 282 282 281 281 280 277 275 273 270 267 266 265 264 263 261 258 256 254 251 250 250 249 251 252 234 184 156 150 148 145 149 156 147 135 132 135 137
295 307 311 301 291 290 298 308 314 307 296 296 303 306 307 308 308 307 307 307 306 306 306 304 302 300 298 296 294 291 290 291 291 289 286 282 281 282 283 283 284 285 285 286 286 285 285 286 286 285 284 284 283 281 278 275 272 270 268 265 262 260 260 259 256 252 246 243 245 245 240 235 220 179 150 142 141 137 129 121 119 124 129 129 126 125